User: anonymous
Location: Unspecified
(0.0000°N, 0.0000°E)
Time: 16:24:17
(UTC+02:00)
Language:

Meteor 1-10 Rocket - Orbit

View from above orbital plane
View from above orbital plane
View from above satellite
View from above satellite

Ground track
Ground track

The orbit data is extracted from the following two-line orbital elements,

1 05732U 71120B   14265.39394522  .00000263  00000-0  15169-3 0  3780
2 05732 081.2550 007.8881 0050952 331.6673 091.1502 14.05829004198595
Epoch (UTC): 22 September 2014 09:27:16
Eccentricity: 0.0050952
inclination: 81.2550°
perigee height: 837 km
apogee height: 910 km
right ascension of ascending node: 7.8881°
argument of perigee: 331.6673°
revolutions per day: 14.05829004
mean anomaly at epoch: 91.1502°
orbit number at epoch: 19859

The dashed part of the orbit path shows where the satellite is in the earth's shadow,  

DLR